Location: Tamazert
(32.6352°N, 5.2072°W)
Time: 04:10:49
(UTC+00:00)

Vanguard 1 Rocket - Pass Details

Date: 14 October 2022
Orbit: 650 x 4225 km, 34.3° (Epoch: 05 December)

Event Time Altitude Azimuth Distance (km) Brightness Sun altitude
Rises 19:53:24 0° 274° (W) 8,471 13.6 -26.9°
Reaches altitude 10° 19:59:32 10° 275° (W) 7,352 13.0 -28.2°
Maximum altitude 20:24:05 87° 7° (N) 3,001 9.7 -33.3°
Enters shadow 20:29:02 56° 92° (E) 2,975 9.5 -34.3°
Drops below altitude 10° 20:37:16 10° 97° (E) 4,338 - -36.0°
Sets 20:39:52 0° 98° (E) 4,995 - -36.5°
